This demonstration page uses our WeatherBlox Daily Observations layout. Learn more.

Left ArrowRight Arrow

Hourly Observations for August 15, 2018

Temp ( °F °C ) Dew Point ( °F °C ) Humidity (%) Winds ( mph kmh ) Pressure ( in mb ) Visibility ( mi km ) Precip ( " mm )
12:16 am 00:16 Clear 66 19 66 19 100 100 N N/A 30.03 1017 10 16 N/A
12:37 am 00:37 Clear 66 19 66 19 100 100 N N/A 30.03 1017 10 16 N/A
12:57 am 00:57 Clear 64 18 64 18 100 100 SE 3 6 30.03 1017 10 16 N/A
1:16 am 01:16 Clear 66 19 66 19 100 100 SE 5 7 30.03 1017 10 16 N/A
1:37 am 01:37 Clear 68 20 68 20 100 100 SSE 6 9 30.00 1016 10 16 N/A
1:56 am 01:56 Clear 68 20 68 20 100 100 SSE 5 7 30.00 1016 10 16 N/A
2:17 am 02:17 Partly Cloudy 68 20 68 20 100 100 SSE 5 7 30.00 1016 10 16 N/A
2:37 am 02:37 Partly Cloudy 68 20 68 20 100 100 SSE 5 7 30.00 1016 10 16 N/A
2:56 am 02:56 Partly Cloudy 68 20 68 20 100 100 SSE 5 7 30.00 1016 10 16 N/A
3:17 am 03:17 Partly Cloudy 68 20 68 20 100 100 SSE 6 9 30.00 1016 10 16 N/A
3:36 am 03:36 Clear 68 20 68 20 100 100 S 5 7 30.00 1016 10 16 N/A
3:56 am 03:56 Clear 68 20 68 20 100 100 SSE 3 6 30.00 1016 10 16 N/A
4:17 am 04:17 Clear 68 20 68 20 100 100 SSE 6 9 30.00 1016 10 16 N/A
4:36 am 04:36 Clear 68 20 68 20 100 100 SSE 3 6 30.00 1016 10 16 N/A
4:57 am 04:57 Partly Cloudy 68 20 68 20 100 100 S 5 7 30.00 1016 10 16 N/A
5:16 am 05:16 Clear 68 20 68 20 100 100 S 3 6 30.00 1016 10 16 N/A
5:37 am 05:37 Partly Cloudy 68 20 68 20 100 100 S 3 6 30.00 1016 10 16 N/A
5:57 am 05:57 Mostly Cloudy 68 20 68 20 100 100 S 3 6 30.00 1016 10 16 N/A
6:16 am 06:16 Mostly Cloudy 68 20 68 20 100 100 S 5 7 30.03 1017 10 16 N/A
6:37 am 06:37 Mostly Cloudy 68 20 68 20 100 100 S 5 7 30.03 1017 10 16 N/A
6:56 am 06:56 Mostly Cloudy 68 20 68 20 100 100 S 5 7 30.03 1017 10 16 N/A
7:17 am 07:17 Partly Cloudy 68 20 68 20 100 100 NE 3 6 30.03 1017 10 16 N/A
7:37 am 07:37 Mostly Cloudy 68 20 68 20 100 100 NNE 3 6 30.03 1017 10 16 N/A
7:56 am 07:56 Mostly Cloudy 68 20 68 20 100 100 SE 5 7 30.03 1017 10 16 N/A
8:17 am 08:17 Partly Cloudy 70 21 70 21 100 100 SE 5 7 30.00 1016 10 16 N/A
8:36 am 08:36 Sunny 70 21 70 21 100 100 SSE 3 6 30.00 1016 10 16 N/A
8:57 am 08:57 Sunny 72 22 72 22 100 100 S 5 7 30.00 1016 10 16 N/A
9:17 am 09:17 Sunny 72 22 72 22 100 100 S 3 6 30.00 1016 10 16 N/A
9:36 am 09:36 Partly Cloudy 73 23 72 22 94 94 S 6 9 30.03 1017 10 16 N/A
9:57 am 09:57 Sunny 75 24 72 22 89 89 SSW 3 6 30.03 1017 10 16 N/A
10:16 am 10:16 Partly Cloudy 75 24 72 22 89 89 SSW 8 13 30.03 1017 10 16 N/A
10:36 am 10:36 Mostly Cloudy 77 25 72 22 83 83 SSW 7 11 30.03 1017 10 16 N/A
10:57 am 10:57 Cloudy 77 25 72 22 83 83 S 6 9 30.00 1016 10 16 N/A
11:16 am 11:16 Cloudy 77 25 72 22 83 83 SSW 7 11 30.03 1017 10 16 N/A
11:37 am 11:37 Cloudy 75 24 70 21 83 83 SSW 9 15 30.03 1017 10 16 N/A
11:57 am 11:57 Cloudy 75 24 70 21 83 83 SSW 10 17 30.03 1017 10 16 N/A
12:16 pm 12:16 Cloudy 75 24 70 21 83 83 SSW 8 13 30.03 1017 10 16 N/A
12:37 pm 12:37 Cloudy 75 24 70 21 83 83 S 9 15 30.03 1017 10 16 N/A
12:56 pm 12:56 Cloudy 72 22 70 21 94 94 SSW 8 13 30.03 1017 5 8 N/A
1:17 pm 13:17 Cloudy 70 21 70 21 100 100 SSW 12 19 30.06 1018 2 3 N/A
1:36 pm 13:36 Cloudy 68 20 68 20 100 100 S 9 15 30.06 1018 3 4 N/A
1:56 pm 13:56 Cloudy 70 21 70 21 100 100 S 9 15 30.06 1018 4 6 N/A
2:17 pm 14:17 Cloudy 70 21 70 21 100 100 S 9 15 30.06 1018 3 5 N/A
2:36 pm 14:36 Cloudy 70 21 70 21 100 100 S 9 15 30.06 1018 7 11 N/A
2:57 pm 14:57 Cloudy 70 21 70 21 100 100 SSE 7 11 30.06 1018 7 11 N/A
3:17 pm 15:17 Cloudy 70 21 70 21 100 100 S 7 11 30.06 1018 7 11 N/A
3:36 pm 15:36 Cloudy 70 21 70 21 100 100 SSE 7 11 30.06 1018 7 11 N/A
3:57 pm 15:57 Mostly Cloudy 70 21 70 21 100 100 SE 7 11 30.00 1016 7 11 N/A
4:16 pm 16:16 Mostly Cloudy 70 21 70 21 100 100 SE 7 11 30.00 1016 7 11 N/A
4:37 pm 16:37 Partly Cloudy 70 21 70 21 100 100 SE 9 15 29.97 1015 7 11 N/A
4:57 pm 16:57 Mostly Cloudy 72 22 72 22 100 100 SSE 8 13 30.00 1016 7 11 N/A
5:16 pm 17:16 Cloudy 70 21 70 21 100 100 SSE 10 17 30.00 1016 7 11 N/A
5:37 pm 17:37 Cloudy 70 21 70 21 100 100 SE 8 13 29.97 1015 5 8 N/A
5:56 pm 17:56 Cloudy 70 21 70 21 100 100 SE 7 11 29.97 1015 7 11 N/A
6:17 pm 18:17 Cloudy 70 21 70 21 100 100 SSE 9 15 29.97 1015 5 8 N/A
6:36 pm 18:36 Cloudy 70 21 70 21 100 100 SSE 8 13 29.97 1015 5 8 N/A
6:57 pm 18:57 Cloudy 70 21 70 21 100 100 SSE 6 9 29.97 1015 7 11 N/A
7:17 pm 19:17 Cloudy 70 21 70 21 100 100 N N/A 29.97 1015 2 3 N/A
7:36 pm 19:36 Cloudy 70 21 70 21 100 100 ESE 7 11 29.97 1015 5 8 N/A
7:57 pm 19:57 Cloudy 70 21 70 21 100 100 E 6 9 29.97 1015 7 11 N/A
8:16 pm 20:16 Cloudy 70 21 70 21 100 100 SE 6 9 29.97 1015 4 6 N/A
8:36 pm 20:36 Cloudy 70 21 70 21 100 100 E 6 9 29.97 1015 3 5 N/A
8:57 pm 20:57 Cloudy 70 21 70 21 100 100 SE 9 15 29.97 1015 4 6 N/A
9:16 pm 21:16 Cloudy 70 21 70 21 100 100 ENE 3 6 29.97 1015 1 2 N/A
9:37 pm 21:37 Cloudy 70 21 70 21 100 100 SSE 8 13 29.97 1015 1 2 N/A
9:56 pm 21:56 Cloudy 70 21 70 21 100 100 SSE 6 9 29.97 1015 5 8 N/A
10:16 pm 22:16 Cloudy 70 21 70 21 100 100 S 5 7 29.97 1015 3 5 N/A
10:37 pm 22:37 Cloudy 70 21 70 21 100 100 S 10 17 29.97 1015 5 8 N/A
10:56 pm 22:56 Cloudy 70 21 70 21 100 100 S 9 15 29.97 1015 5 8 N/A
11:17 pm 23:17 Cloudy 68 20 68 20 100 100 S 13 20 30.00 1016 10 16 N/A
11:36 pm 23:36 Cloudy 68 20 68 20 100 100 S 13 20 30.00 1016 10 16 N/A
11:56 pm 23:56 Cloudy 66 19 66 19 100 100 S 12 19 30.00 1016 10 16 N/A

Powered by AerisWeather